sat.trackr.live / text

‹ back to catalog

STARLINK-4415

NORAD 53465 · 2022-099A

PAYLOAD ACTIVE UNKNOWN

§ Identity

Operator
Country
US
Launch date
2022-08-12
Launch site
AFWTR
Launch vehicle
Mass (kg)
RCS (m²)

Purposes: comms

External: N2YO · Heavens-Above · Gunter

§ Orbital elements

Epoch: 2026-05-25T01:11:15.194688Z

Period
95.64 min
Inclination
97.4480°
Eccentricity
0.0001826
Mean motion
15.05646749 rev/d
Perigee alt
548.3 km
Apogee alt
550.8 km
Semi-major
6,927.7 km
B*
6.8729e-5
RAAN
266.1119°
Arg perigee
121.6187°
Mean anomaly
238.5218°
Rev number
20,752

§ Raw data

STARLINK-44151 53465U 22099A   26145.04948142  .00000933  00000+0  68729-4 0  99952 53465  97.4480 266.1119 0001826 121.6187 238.5218 15.05646749207528

JSON: /api/v1/satellites/53465 · /tle

For live sub-satellite position, see the globe view (requires WebGL).

§ Visibility from observer

Set your observer location to see the next 7 days of passes ≥ 10°. The values pass through the URL so the page stays shareable.

No JS? Fill the form by hand. The geolocation button needs JavaScript.